Location: Geroldsau
(48.7259°N, 8.2466°E)
Time: 07:44:27
(UTC+00:00)

CZ-4C R/B - Visible Passes

Search period start: 28 October 2021 00:00
Search period end: 07 November 2021 00:00
Orbit: 463 x 632 km, 98.0° (Epoch: 27 October)

Date Brightness Start Highest point End Pass type
(mag) Time Alt. Az. Time Alt. Az. Time Alt. Az.
28 Oct 6.5 17:34:35 10° NNW 17:36:30 13° WNW 17:38:24 10° W visible
29 Oct 6.4 17:29:18 10° NNW 17:31:35 14° WNW 17:33:52 10° W visible
30 Oct 6.4 17:24:05 10° NNW 17:26:41 16° WNW 17:29:16 10° W visible
31 Oct 6.3 17:18:54 10° NNW 17:21:45 17° WNW 17:24:37 10° W visible
01 Nov 6.3 17:13:45 10° NNW 17:16:50 19° WNW 17:19:55 10° WSW visible
02 Nov 6.1 17:08:37 10° NNW 17:11:54 21° WNW 17:15:10 10° WSW visible
03 Nov 6.0 17:03:30 10° N 17:06:58 23° WNW 17:10:24 10° WSW visible
04 Nov 5.8 16:58:25 10° N 17:02:02 25° WNW 17:05:37 10° WSW visible
05 Nov 5.7 16:53:19 10° N 16:57:05 28° WNW 17:00:48 10° WSW visible
06 Nov 5.5 16:48:14 10° N 16:52:08 31° WNW 16:55:58 10° SW visible
